TimeEDT,TemperatureF,Dew PointF,Humidity,Sea Level PressureIn,VisibilityMPH,Wind Direction,Wind SpeedMPH,Gust SpeedMPH,PrecipitationIn,Events,Conditions,WindDirDegrees,DateUTC
12:15 AM,75.2,69.8,83,29.89,10.0,NNE,8.1,16.1,0.00,,Overcast,30,2013-09-25 04:15:00
12:35 AM,75.2,69.8,83,29.88,10.0,NE,8.1,19.6,0.00,,Overcast,40,2013-09-25 04:35:00
12:55 AM,75.2,71.6,89,29.88,10.0,NNE,11.5,17.3,0.00,,Overcast,30,2013-09-25 04:55:00
1:15 AM,75.2,71.6,89,29.87,10.0,NE,8.1,16.1,0.00,,Overcast,40,2013-09-25 05:15:00
1:35 AM,75.2,71.6,89,29.87,10.0,NNE,11.5,23.0,0.00,,Overcast,30,2013-09-25 05:35:00
1:55 AM,75.2,71.6,89,29.88,10.0,NNE,8.1,19.6,0.00,,Mostly Cloudy,20,2013-09-25 05:55:00
2:15 AM,75.2,71.6,89,29.87,10.0,NNE,10.4,-,0.00,,Mostly Cloudy,20,2013-09-25 06:15:00
2:35 AM,75.2,71.6,89,29.87,10.0,NNE,9.2,-,0.00,,Overcast,20,2013-09-25 06:35:00
2:55 AM,75.2,71.6,89,29.86,10.0,NNE,11.5,-,0.00,,Overcast,20,2013-09-25 06:55:00
3:15 AM,75.2,71.6,89,29.85,10.0,NNE,9.2,17.3,0.00,,Overcast,20,2013-09-25 07:15:00
3:35 AM,75.2,71.6,89,29.84,10.0,NNE,10.4,16.1,0.00,,Overcast,20,2013-09-25 07:35:00
3:55 AM,75.2,71.6,89,29.83,10.0,NNE,12.7,18.4,0.00,,Mostly Cloudy,20,2013-09-25 07:55:00
4:15 AM,75.2,71.6,89,29.83,10.0,NNE,11.5,17.3,0.00,,Mostly Cloudy,20,2013-09-25 08:15:00
4:35 AM,73.4,71.6,94,29.83,8.0,North,8.1,-,0.00,,Overcast,360,2013-09-25 08:35:00
4:55 AM,73.4,71.6,94,29.83,10.0,North,10.4,17.3,0.00,,Overcast,10,2013-09-25 08:55:00
5:15 AM,73.4,71.6,94,29.83,8.0,North,9.2,-,0.00,,Mostly Cloudy,10,2013-09-25 09:15:00
5:35 AM,73.4,71.6,94,29.84,5.0,NNE,6.9,-,0.00,,Overcast,30,2013-09-25 09:35:00
5:55 AM,73.4,71.6,94,29.84,4.0,NNE,12.7,19.6,0.00,Rain,Light Rain,20,2013-09-25 09:55:00
6:15 AM,73.4,71.6,94,29.83,3.0,NNE,11.5,-,0.00,Rain,Light Rain,20,2013-09-25 10:15:00
6:35 AM,71.6,71.6,100,29.84,2.5,North,10.4,-,0.01,,Light Drizzle,360,2013-09-25 10:35:00
6:50 AM,69.8,68.0,94,29.84,5.0,North,13.8,-,N/A,,Drizzle,360,2013-09-25 10:50:00
7:50 AM,71.6,68.0,88,29.84,5.0,NNE,9.2,-,N/A,,Light Drizzle,20,2013-09-25 11:50:00
8:50 AM,71.6,68.0,88,29.84,5.0,NNE,9.2,-,N/A,Rain,Light Rain,30,2013-09-25 12:50:00
9:50 AM,73.4,69.8,88,29.85,7.0,NNE,9.2,-,N/A,,Light Drizzle,30,2013-09-25 13:50:00
10:50 AM,75.2,68.0,78,29.84,10.0,NNE,8.1,16.1,N/A,,Overcast,20,2013-09-25 14:50:00
11:50 AM,75.2,69.8,83,29.85,10.0,NNE,11.5,19.6,N/A,,Overcast,30,2013-09-25 15:50:00
12:50 PM,77.0,69.8,78,29.84,10.0,NNE,10.4,17.3,N/A,,Overcast,30,2013-09-25 16:50:00
1:50 PM,78.8,69.8,74,29.82,10.0,North,8.1,16.1,N/A,,Overcast,10,2013-09-25 17:50:00
2:55 PM,77.0,69.8,78,29.80,10.0,NNE,9.2,-,N/A,,Overcast,30,2013-09-25 18:55:00
3:50 PM,77.0,69.8,78,29.80,10.0,NNE,10.4,-,N/A,,Overcast,30,2013-09-25 19:50:00
4:50 PM,77.0,68.0,74,29.80,10.0,ENE,11.5,-,N/A,,Overcast,60,2013-09-25 20:50:00
5:51 PM,77.0,68.0,74,29.80,10.0,NNE,9.2,-,N/A,,Mostly Cloudy,30,2013-09-25 21:51:00
6:50 PM,75.2,69.8,83,29.81,10.0,NNE,6.9,-,N/A,,Mostly Cloudy,30,2013-09-25 22:50:00
7:50 PM,73.4,69.8,88,29.82,3.0,North,8.1,-,N/A,Rain,Rain,360,2013-09-25 23:50:00
9:15 PM,71.6,71.6,100,29.83,7.0,NNE,4.6,-,0.00,,Mostly Cloudy,20,2013-09-26 01:15:00
9:35 PM,71.6,69.8,94,29.83,10.0,North,5.8,-,0.00,,Mostly Cloudy,10,2013-09-26 01:35:00
9:55 PM,71.6,69.8,94,29.83,10.0,NNE,6.9,-,0.00,,Overcast,30,2013-09-26 01:55:00
10:15 PM,73.4,69.8,88,29.83,10.0,North,5.8,-,0.00,,Overcast,10,2013-09-26 02:15:00
10:35 PM,73.4,69.8,88,29.83,10.0,NNE,5.8,-,0.00,,Overcast,20,2013-09-26 02:35:00
10:55 PM,73.4,69.8,88,29.83,10.0,NNE,6.9,-,0.00,,Overcast,20,2013-09-26 02:55:00
11:15 PM,73.4,69.8,88,29.83,10.0,North,4.6,-,0.00,,Overcast,10,2013-09-26 03:15:00
11:35 PM,73.4,69.8,88,29.83,10.0,North,5.8,-,0.00,,Overcast,360,2013-09-26 03:35:00
11:55 PM,73.4,69.8,88,29.83,10.0,North,5.8,-,0.00,,Overcast,360,2013-09-26 03:55:00